FW7692 Weather Reports


time (UTC)temp
F
wind
direction
speed
knots
gust
knots
rain 1hr
in
rain 24hr
in
rain mn
in
humidity
%
barometer
mb
20260509213019 61 257 5.2 8.7 0.00 0.00 0.00 74 1003.1
20260509212019 61 262 5.2 9.6 0.00 0.00 0.00 74 1003.0
20260509211039 61 267 4.3 8.7 0.00 0.00 0.00 74 1003.2
20260509210019 61 253 4.3 9.6 0.00 0.00 0.00 74 1003.5
20260509205019 61 217 7.0 11.3 0.00 0.00 0.00 73 1003.6
20260509204036 62 227 6.1 10.4 0.00 0.00 0.00 72 1003.6
20260509203016 62 205 6.1 11.3 0.00 0.00 0.00 72 1003.7
20260509202017 62 199 6.1 11.3 0.00 0.00 0.00 72 1003.6
20260509201017 62 211 6.1 11.3 0.00 0.00 0.00 72 1003.9
20260509200017 63 207 5.2 11.3 0.00 0.00 0.00 71 1003.9
20260509195018 63 195 5.2 9.6 0.00 0.00 0.00 70 1003.9
20260509194017 62 305 5.2 11.3 0.00 0.00 0.00 69 1004.0
20260509193138 62 311 4.3 9.6 0.00 0.00 0.00 69 1003.9
20260509192018 63 275 6.1 10.4 0.00 0.00 0.00 69 1004.3
20260509191018 63 202 4.3 10.4 0.00 0.00 0.00 70 1004.4
20260509190018 62 157 8.7 13.0 0.00 0.00 0.00 70 1004.6
20260509185018 62 151 6.1 10.4 0.00 0.00 0.00 73 1004.6
20260509184019 62 155 7.8 11.3 0.00 0.00 0.00 71 1004.8
20260509183039 62 307 5.2 9.6 0.00 0.00 0.00 70 1004.9
20260509182019 62 197 7.8 13.9 0.00 0.00 0.00 70 1004.7
20260509181019 62 212 7.0 13.0 0.00 0.00 0.00 70 1004.8
20260509180019 62 209 6.1 11.3 0.00 0.00 0.00 72 1004.9
20260509175019 62 218 6.1 13.9 0.00 0.00 0.00 72 1004.9
20260509174036 60 225 6.1 9.6 0.00 0.00 0.00 75 1005.2
20260509173017 61 196 7.8 12.2 0.00 0.00 0.00 74 1005.5
20260509172017 60 223 6.1 11.3 0.00 0.00 0.00 75 1005.7
20260509171017 60 213 7.0 10.4 0.00 0.00 0.00 77 1005.8
20260509170018 60 199 5.2 9.6 0.00 0.00 0.00 77 1005.8
20260509165017 60 230 5.2 12.2 0.00 0.00 0.00 76 1005.8
20260509164017 60 211 5.2 9.6 0.00 0.00 0.00 74 1005.9
20260509163038 60 185 6.1 11.3 0.00 0.00 0.00 74 1005.9
20260509162018 60 145 6.1 8.7 0.00 0.00 0.00 76 1006.1
20260509161018 59 0.0 0.0 0.00 0.00 0.00 75 1006.1
20260509160018 59 146 7.0 9.6 0.00 0.00 0.00 77 1006.1
20260509155018 59 152 7.0 10.4 0.00 0.00 0.00 78 1006.0
20260509154019 59 148 6.1 8.7 0.00 0.00 0.00 77 1006.1
20260509153039 59 202 4.3 9.6 0.00 0.00 0.00 78 1006.2
20260509152019 58 205 3.5 7.8 0.00 0.00 0.00 79 1006.2
20260509151020 58 199 4.3 9.6 0.00 0.00 0.00 80 1006.3
20260509150019 58 199 5.2 9.6 0.00 0.00 0.00 79 1006.3
20260509145016 58 190 4.3 9.6 0.00 0.00 0.00 81 1006.4
20260509144017 58 183 5.2 9.6 0.00 0.00 0.00 81 1006.3
20260509143017 58 190 5.2 8.7 0.00 0.00 0.00 81 1006.4
20260509142017 57 193 4.3 7.8 0.00 0.00 0.00 83 1006.4
20260509141017 56 189 4.3 7.0 0.00 0.00 0.00 84 1006.4
20260509140018 56 173 5.2 7.8 0.00 0.00 0.00 85 1006.5
20260509135018 55 172 4.3 7.0 0.00 0.00 0.00 86 1006.7
20260509134018 55 170 4.3 7.8 0.00 0.00 0.00 86 1006.8
20260509133018 55 173 4.3 7.8 0.00 0.00 0.00 86 1006.8
20260509132018 55 157 3.5 7.0 0.00 0.00 0.00 86 1006.8
20260509131018 55 166 4.3 8.7 0.00 0.00 0.00 86 1006.8
20260509130058 54 161 3.5 7.0 0.00 0.00 0.00 87 1006.7
20260509125018 54 171 4.3 8.7 0.00 0.00 0.00 88 1006.7
20260509124018 53 183 2.6 7.0 0.00 0.00 0.00 89 1006.7
20260509123019 53 170 3.5 7.8 0.00 0.00 0.00 90 1006.9
20260509122019 52 181 2.6 6.1 0.00 0.00 0.00 91 1007.0
20260509121019 51 178 2.6 7.0 0.00 0.00 0.00 92 1007.0
20260509120039 51 168 3.5 7.0 0.00 0.00 0.00 93 1006.9
20260509115017 49 163 2.6 5.2 0.00 0.01 0.00 96 1006.9
20260509114017 48 171 1.7 4.3 0.00 0.01 0.00 98 1006.9
20260509113017 46 163 0.9 2.6 0.00 0.01 0.00 100 1006.9
20260509112017 44 22 0.0 0.9 0.00 0.02 0.00 99 1006.9
20260509111037 42 39 0.9 1.7 0.00 0.04 0.00 99 1006.9
20260509110017 41 71 0.9 1.7 0.00 0.07 0.00 99 1007.0
20260509105017 41 10 0.9 0.9 0.00 0.11 0.00 98 1007.0
20260509104017 40 3 0.9 1.7 0.00 0.13 0.00 98 1007.2
20260509103018 40 356 0.9 1.7 0.00 0.13 0.00 98 1007.1
20260509102018 39 17 0.9 1.7 0.00 0.14 0.00 98 1007.1
20260509101018 39 122 0.0 1.7 0.00 0.14 0.00 97 1007.1
20260509100018 39 56 0.0 0.9 0.00 0.15 0.00 97 1007.1
20260509095018 39 13 0.0 1.7 0.00 0.15 0.00 96 1007.2
20260509094019 40 4 0.0 0.9 0.00 0.15 0.00 96 1007.1
20260509093018 39 117 0.0 1.7 0.00 0.15 0.00 96 1007.1
20260509092039 39 7 0.0 0.9 0.00 0.15 0.00 95 1007.1
20260509091019 39 5 0.0 0.9 0.00 0.15 0.00 94 1007.1
20260509090019 39 11 0.9 1.7 0.00 0.15 0.00 93 1007.2
20260509085016 40 20 0.9 1.7 0.00 0.15 0.00 93 1007.2
20260509084017 40 12 0.9 1.7 0.00 0.15 0.00 92 1007.2
20260509083017 40 12 0.0 0.9 0.00 0.15 0.00 92 1007.3
20260509082016 40 95 0.9 1.7 0.00 0.15 0.00 93 1007.3
20260509081017 39 79 0.0 0.9 0.00 0.15 0.00 95 1007.3
20260509080037 39 356 0.9 1.7 0.00 0.15 0.00 94 1007.4
20260509075017 39 21 0.0 0.9 0.00 0.15 0.00 95 1007.4
20260509074018 39 16 0.9 1.7 0.00 0.15 0.00 95 1007.5
20260509073017 39 17 0.0 1.7 0.00 0.15 0.00 95 1007.5
20260509072018 38 64 0.0 0.9 0.00 0.15 0.00 96 1007.7
20260509071058 38 37 0.0 0.9 0.00 0.15 0.00 96 1007.8
20260509070018 38 14 0.9 1.7 0.00 0.15 0.00 96 1007.8
20260509065019 38 15 0.0 0.9 0.00 0.15 0.00 96 1007.9
20260509064018 38 75 0.0 0.9 0.00 0.15 0.00 97 1008.1
20260509063019 37 92 0.0 0.9 0.00 0.15 0.00 97 1008.1
20260509062019 37 357 0.0 0.9 0.00 0.15 0.00 96 1008.3
20260509061019 38 349 0.0 0.9 0.00 0.15 0.00 96 1008.4
20260509060039 38 13 0.9 1.7 0.00 0.15 0.00 96 1008.6
20260509055019 38 34 0.0 0.9 0.00 0.15 0.00 96 1008.8
20260509054017 38 21 0.9 1.7 0.00 0.15 0.00 96 1008.9
20260509053017 38 13 0.9 1.7 0.00 0.15 0.00 95 1008.9
20260509052037 39 11 0.9 1.7 0.00 0.15 0.00 95 1009.1
20260509051017 40 28 0.9 1.7 0.00 0.15 0.00 95 1009.1
20260509050017 40 35 0.0 1.7 0.00 0.15 0.00 95 1009.1
20260509045017 40 336 0.9 1.7 0.00 0.15 0.00 95 1009.2
20260509044018 40 18 0.9 1.7 0.00 0.15 0.00 94 1009.3
20260509043018 39 34 0.9 1.7 0.00 0.15 0.00 93 1009.4
20260509042018 38 21 0.9 1.7 0.00 0.15 0.00 92 1009.5
20260509041018 38 48 0.0 0.9 0.00 0.15 0.00 94 1009.5
20260509040038 38 353 0.9 1.7 0.00 0.15 0.00 94 1009.7
20260509035018 39 1 0.9 1.7 0.00 0.15 0.15 94 1009.7
20260509034018 39 38 0.0 0.9 0.00 0.15 0.15 93 1009.8
20260509033018 39 81 0.0 0.9 0.00 0.15 0.15 93 1009.9
20260509032019 39 27 0.9 1.7 0.00 0.15 0.15 91 1010.0
20260509031039 39 31 0.0 0.9 0.00 0.15 0.15 90 1010.1
20260509030059 40 21 0.0 0.9 0.00 0.15 0.15 90 1010.2
20260509025037 39 350 0.0 0.9 0.00 0.15 0.15 90 1010.2
20260509024017 40 14 0.0 0.9 0.00 0.15 0.15 90 1010.3
20260509023016 41 8 0.0 1.7 0.00 0.15 0.15 89 1010.3
20260509022037 41 42 0.0 0.9 0.00 0.15 0.15 87 1010.3
20260509021017 42 24 0.0 0.9 0.00 0.15 0.15 84 1010.3
20260509020037 42 4 0.0 1.7 0.00 0.15 0.15 82 1010.2
20260509015017 43 11 0.0 1.7 0.00 0.15 0.15 82 1010.1
20260509014017 43 82 0.9 1.7 0.00 0.18 0.15 79 1010.0
20260509013017 44 6 0.9 1.7 0.00 0.23 0.15 79 1009.9
20260509012017 45 24 0.9 1.7 0.00 0.26 0.15 74 1009.9
20260509011018 46 31 0.0 1.7 0.00 0.28 0.15 60 1009.9
20260509010018 47 31 0.9 1.7 0.00 0.29 0.15 58 1009.8
20260509005019 48 19 0.9 1.7 0.00 0.31 0.15 54 1009.9
20260509004019 50 17 0.0 0.9 0.00 0.31 0.15 57 1009.9
20260509003018 50 43 0.0 0.9 0.00 0.31 0.15 48 1009.9
20260509002019 51 158 0.9 2.6 0.00 0.31 0.15 48 1009.8
20260509001039 52 167 0.9 1.7 0.00 0.31 0.15 44 1009.6
20260509000016 53 170 1.7 3.5 0.00 0.31 0.15 41 1009.5
20260508235036 54 199 1.7 6.1 0.00 0.31 0.15 39 1009.5
20260508234017 54 175 2.6 5.2 0.00 0.42 0.15 40 1009.4
20260508233056 55 203 2.6 7.0 0.00 0.53 0.15 41 1009.5
20260508232017 55 217 2.6 7.0 0.00 0.55 0.15 42 1009.5
20260508231037 55 183 4.3 7.0 0.00 0.55 0.15 44 1009.5
20260508230017 55 188 4.3 8.7 0.00 0.56 0.15 43 1009.5
20260508225037 55 175 3.5 7.8 0.00 0.57 0.15 44 1009.4
20260508224018 55 181 3.5 6.1 0.00 0.58 0.15 46 1009.5
20260508223018 56 179 4.3 7.8 0.00 0.58 0.15 44 1009.5
20260508222018 55 188 2.6 4.3 0.00 0.58 0.15 44 1009.6
20260508221018 56 213 1.7 6.1 0.00 0.58 0.15 45 1009.6
20260508220019 56 215 1.7 7.0 0.00 0.58 0.15 45 1009.6
20260508215019 56 187 3.5 8.7 0.00 0.58 0.15 46 1009.6
20260508214018 56 188 3.5 7.8 0.00 0.58 0.15 47 1009.7